Regional Weather Roundup
Issued by NWS

Current Version | Previous Version | Text Only | Print | Product List | Glossary On
Versions: 1 2 3 4 5 6 7 8 9 10 11 12 13 14 15 16 17 18 19 20 21 22 23 24 25 26 27 28 29 30 31 32 33 34 35 36 37 38 39 40 41 42 43 44 45 46 47 48 49 50
000
ASUS43 KIND 121209
RWRIN

WEATHER ROUNDUP FOR INDIANA
NATIONAL WEATHER SERVICE INDIANAPOLIS IN
700 AM EST TUE DEC 12 2017

NOTE: "FAIR" INDICATES FEW OR NO CLOUDS BELOW 12,000 FEET WITH NO
SIGNIFICANT WEATHER AND/OR OBSTRUCTIONS TO VISIBILITY.

* - STATION DOES NOT REPORT WEATHER SUCH AS PRECIPITATION OR FOG.

+ - STATION NOT QUALITY CONTROLLED BY THE NATIONAL WEATHER SERVICE.
    USE DATA WITH CAUTION...ESPECIALLY DEWPOINT AND RELATIVE
    HUMIDITY OBSERVATIONS.

INZ001>003-010>013-019-020-121300-
NORTHWEST INDIANA

CITY           SKY/WX    TMP DP  RH WIND       PRES   REMARKS
GARY /AIRPORT/ CLOUDY    25  10  54 NW17G35   30.02S WCI  11
KNOX *+        CLOUDY    23  21  93 NW20G29   29.96R WCI   8
LA PORTE +     LGT SNOW  23  17  77 NW21G29   29.96R WCI   8
6HR MIN TEMP:  23; 6HR MAX TEMP:  32;

MICHIGAN CITY+ LGT SNOW  27  16  63 NW15G26   29.98R WCI  15
MONTICELLO +   CLOUDY    23  10  56 NW21G26   29.98R WCI   8
6HR MIN TEMP:  23; 6HR MAX TEMP:  33;

RENSSELAER +   CLOUDY    23   5  46 NW14G24   30.01R WCI  11
VALPARAISO     FLURRIES  24  17  74 NW15G22   29.98R WCI  11
6HR MIN TEMP:  24; 6HR MAX TEMP:  34; 6HR PCP: TRACE;


$$

LMZ046-743>745-121300-
SOUTHERN LAKE MICHIGAN

STATION/POSITION TIME  TEMP    WIND        PRES    WAVE
                       AIR SEA DIR/SP/G            HT
                 (UTC) (F)     (DEG/KT/KT) (MB)    (FT)
BURNS HARBOR     1127   26     330/ 20/ 25 1015.6R
MICHIGAN CITY    1140   26     300/ 29/ 33   N/A

$$

INZ004-005-014>016-021>024-121300-
NORTH CENTRAL INDIANA

CITY           SKY/WX    TMP DP  RH WIND       PRES   REMARKS
ELKHART        PTCLDY    25  14  63 NW8G17    29.92  WCI  16
GOSHEN         FLURRIES  23  18  81 N14       29.91R WCI  11
6HR MIN TEMP:  22; 6HR MAX TEMP:  34; 6HR PCP: TRACE;

LOGANSPORT +   CLOUDY    27  16  63 NW9G21    29.97R WCI  17
PERU/GRISSOM   CLOUDY    26  14  61 NW16G26   29.92R WCI  14
6HR MIN TEMP:  26; 6HR MAX TEMP:  34; 6HR PCP: TRACE;

ROCHESTER +    MOCLDY    28  19  69 NW14      29.94R WCI  17
SOUTH BEND     LGT SNOW  21  20  96 N14       29.94R VSB 1   WCI   8
6HR MIN TEMP:  21; 6HR MAX TEMP:  31; 6HR PCP:  0.01;

WARSAW +       CLOUDY    25  14  63 NW13G21   29.91R WCI  13

$$

INZ006>009-017-018-025>027-121300-
NORTHEAST INDIANA

CITY           SKY/WX    TMP DP  RH WIND       PRES   REMARKS
AUBURN +       CLOUDY    25  12  58 NW10G21   29.88R WCI  15
FORT WAYNE     LGT SNOW  24  18  77 N16G23    29.89R WCI  11
6HR MIN TEMP:  24; 6HR MAX TEMP:  34; 6HR PCP: TRACE;

HUNTINGTON +   CLOUDY    26  14  62 NW9G17    29.90R WCI  16
6HR MIN TEMP:  26; 6HR MAX TEMP:  33;

KENDALLVILLE + CLOUDY    22  11  63 NW15G23   29.88R WCI   8

$$

INZ028-029-035-036-043>045-051>053-121300-
WEST CENTRAL INDIANA

CITY           SKY/WX    TMP DP  RH WIND       PRES   REMARKS
CRAWFORDSVL +  CLOUDY    24  14  66 NW14G25   29.96R WCI  12
6HR MIN TEMP:  24; 6HR MAX TEMP:  32;

GREENCASTLE +  MOCLDY    28  14  54 NW13G22   29.99R WCI  18
LAFAYETTE      PTCLDY    22  10  60 NW15G25   30.01R WCI   9
6HR MIN TEMP:  22; 6HR MAX TEMP:  33; 6HR PCP: TRACE;

TERRE HAUTE    PTCLDY    29  15  56 NW18G33   30.02R WCI  16
6HR MIN TEMP:  29; 6HR MAX TEMP:  36; 6HR PCP: TRACE;


$$

INZ030>032-037>040-046>048-054>057-064-065-121300-
CENTRAL INDIANA

CITY           SKY/WX    TMP DP  RH WIND       PRES   REMARKS
COLUMBUS       FLURRIES  30  18  59 MISG      29.94
FRANKFORT +    MOCLDY    26  15  62 NW18G30   29.98R WCI  12
6HR MIN TEMP:  26; 6HR MAX TEMP:  36;

INDIANAPOLIS   MOCLDY    28  18  66 NW16      29.96R WCI  16
6HR MIN TEMP:  28; 6HR MAX TEMP:  35; 6HR PCP: TRACE;

-EAGLE CREEK   MOCLDY    28  18  66 NW18G28   29.95R WCI  15
6HR MIN TEMP:  28; 6HR MAX TEMP:  35; 6HR PCP: TRACE;

KOKOMO +       CLOUDY    26  16  65 NW20G29   29.93R WCI  12
6HR MIN TEMP:  26; 6HR MAX TEMP:  34; 6HR PCP: TRACE;

MARION +       CLOUDY    27  18  69 NW17G25   29.91R WCI  14
MT COMFORT *+  CLOUDY    27  23  86 NW21G31   29.93R WCI  13
SHELBYVILLE    CLOUDY    31  22  69 NW15      29.91R WCI  20
6HR MIN TEMP:  31; 6HR MAX TEMP:  37; 6HR PCP: TRACE;

ZIONSVILLE +   PTCLDY    23  14  70 NW17G24   29.95R WCI   9
6HR MIN TEMP:  23; 6HR MAX TEMP:  32;


$$

INZ033-034-041-042-049-050-058-059-121300-
EAST CENTRAL INDIANA

CITY           SKY/WX    TMP DP  RH WIND       PRES   REMARKS
MUNCIE         CLOUDY    29  20  69 NW21      29.89R WCI  16
6HR MIN TEMP:  29; 6HR MAX TEMP:  35; 6HR PCP: TRACE;

RICHMOND +     CLOUDY    28  27  93 NW17G25   29.85R WCI  16

$$

INZ060-061-067>069-081>083-085>088-121300-
SOUTHWEST INDIANA

CITY           SKY/WX    TMP DP  RH WIND       PRES   REMARKS
EVANSVILLE     CLOUDY    35  28  75 NW12      30.05R WCI  27
6HR MIN TEMP:  35; 6HR MAX TEMP:  44; 6HR PCP:  0.01;

HUNTINGBURG +  CLOUDY    34  22  61 NW18G25   30.02R WCI  23
6HR MIN TEMP:  34; 6HR MAX TEMP:  43; 6HR PCP: TRACE;

WASHINGTON +   CLOUDY    32  19  58 NW13      30.02R WCI  23
6HR MIN TEMP:  32; 6HR MAX TEMP:  39;


$$

INZ062-063-066-070>080-084-089>092-121300-
SOUTH CENTRAL AND SOUTHEAST INDIANA

CITY           SKY/WX    TMP DP  RH WIND       PRES   REMARKS
BEDFORD +      CLOUDY    32  18  55 NW9G20    29.96R WCI  24
BLOOMINGTON    CLOUDY    32  17  54 NW8G18    29.96R WCI  25
6HR MIN TEMP:  32; 6HR MAX TEMP:  37;

MADISON *+     CLOUDY    32  28  86 NW13G23   29.94R WCI  22
NORTH VERNON + CLOUDY    30  21  69 NW14G24   29.94R WCI  20
SEYMOUR +      CLOUDY    34  23  64 NW8       29.96R WCI  27

$$





USA.gov is the U.S. government's official web portal to all federal, state and local government web resources and services.